Regional Weather Roundup
Issued by NWS

Home | Current Version | Previous Version | Graphics & Text | Print | Product List | Glossary On
Versions: 1 2 3 4 5 6 7 8 9 10 11 12 13 14 15 16 17 18 19 20 21 22 23 24 25 26 27 28 29 30 31 32 33 34 35 36 37 38 39 40 41 42 43 44 45 46 47 48 49 50
000
ASUS43 KLMK 190102
RWRKY
KENTUCKY REGIONAL WEATHER ROUNDUP
NATIONAL WEATHER SERVICE LOUISVILLE KY
800 PM EST WED JAN 18 2017

NOTE "FAIR" INDICATES FEW OR NO CLOUDS BELOW 12,000 FEET
WITH NO SIGNIFICANT WEATHER AND/OR OBSTRUCTIONS TO VISIBILITY.

KYZ001>023-026-027-061>063-070>075-190200-
WESTERN AND SOUTH CENTRAL KENTUCKY

CITY           SKY/WX    TMP DP  RH WIND       PRES   REMARKS
PADUCAH        CLOUDY    44  39  82 CALM      30.12S
HENDERSON      MOCLDY    39  34  81 CALM      30.13S
OWENSBORO      CLOUDY    41  36  82 CALM      30.15R
HOPKINSVILLE   CLOUDY    46  40  82 CALM      30.12R
BOWLING GREEN  PTCLDY    46  38  73 CALM      30.14S
GLASGOW        NOT AVBL
$$

KYZ024-025-028>034-038-045-046-053-190200-
NORTH CENTRAL KENTUCKY

CITY           SKY/WX    TMP DP  RH WIND       PRES   REMARKS
LOUISVILLE/SDF CLOUDY    42  34  73 CALM      30.14F
LOUISVILLE/LOU MOCLDY    42  35  76 N3        30.14F
FORT KNOX      CLOUDY    36  34  93 CALM      30.12S
$$

KYZ035>037-039>044-047>052-055>060-089>105-190200-
NORTHEAST KENTUCKY

CITY           SKY/WX    TMP DP  RH WIND       PRES   REMARKS
LEXINGTON      CLOUDY    40  35  83 CALM      30.14S
COVINGTON      CLOUDY    40  36  86 SW6       30.15R
FRANKFORT      MOCLDY    42  34  73 CALM      30.13F
$$

KYZ054-064>069-076>088-106>120-190200-
SOUTHEAST KENTUCKY

CITY           SKY/WX    TMP DP  RH WIND       PRES   REMARKS
JACKSON        CLOUDY    43  37  79 CALM      30.13F
LONDON         MOCLDY    41  36  82 NE3       30.13F
SOMERSET       CLOUDY    41  36  81 CALM      30.14F
MIDDLESBORO    CLOUDY    43  40  86 CALM      30.14F
MONTICELLO     MOCLDY    38  36  92 CALM      30.16S
$$





USA.gov is the U.S. government's official web portal to all federal, state and local government web resources and services.